Tracking 29892 objects as of 21-Nov-2024
HD Live streaming from Space Station
objects crossing your sky now

FLOCK 4Q 24

Track FLOCK 4Q 24 now!
10-day predictions
FLOCK 4Q 24 is classified as:


NORAD ID: 58314
Int'l Code: 2023-174BL
Perigee: 439.2 km
Apogee: 445.6 km
Inclination: 97.4 °
Period: 93.3 minutes
Semi major axis: 6813 km
RCS: Unknown
Launch date: November 11, 2023
Source: United States (US)
Launch site: AIR FORCE WESTERN TEST RANGE (AFWTR)
Your satellite tracking list
Your tracking list is empty




NASA's NSSDC Master Catalog

Two Line Element Set (TLE):
1 58314U 23174BL  24325.63486133  .00195905  00000-0  42434-2 0  9996
2 58314  97.4324  39.6496 0004730   0.2174 359.9075 15.43677068 57576
Source of the keplerian elements: AFSPC